Weather in We

New Caledonia     20°56′57″S   167°21′11″E
temp.,
°C
wind,
m/s
gust,
m/s
humid.,
%
clouds,
%
prec.,
mm/h
press.,
hPa
HPBL,
m
20 april, tue
tue2023:00+24nne119135 0.0 101354
02:00+24nw11935 0.0 101247
05:00+23w12925 0.0 101374
08:00+26ssw11837 0.0 1014241
11:00+28sse327348 0.0 1014993
14:00+26sse558060 0.2 1012700
17:00+25sse578429 0.3 1013601
20:00+24sse4883100 0.0 1015535
21 april, wed
wed2123:00+24se4783100 0.0 1015453
02:00+24se3783100 0.0 1014442
05:00+24se4785100 0.1 1014479
08:00+24se468195 0.1 1016575
11:00+26se447281 0.1 1015881
14:00+26se447283 0.1 1013852
17:00+24se358028 0.1 1013471
20:00+23se368471 0.0 1015266
22 april, thu
thu2223:00+23se358189 0.0 1015249
02:00+22ese24850 0.0 1013137
05:00+22ese23870 0.0 101388
08:00+25se45794 0.0 1015524
11:00+27ese22681 0.0 1014819
14:00+28se226552 0.0 10111078
17:00+25se35784 0.0 1012367
20:00+23ese368716 0.0 1014280
23 april, fri
fri2323:00+23ese368817 0.0 1014272
02:00+23ese358499 0.0 1013319
05:00+23se3684100 0.1 1013304
08:00+24ese357964 0.0 1015399
11:00+27se446684 0.1 10141053
14:00+27se446584 0.0 10121069
17:00+24se3575100 0.0 1013405
20:00+23ese368226 0.0 1015285
24 april, sat
sat2423:00+22se36836 0.0 1015272
02:00+22se378686 0.0 1014304
05:00+21se37855 0.0 1014283
08:00+24se46745 0.0 1016806
11:00+26ese45632 0.0 10151034
14:00+26se456157 0.0 10131122
17:00+24ese467372 0.0 1013481
20:00+22ese3781100 0.0 1015336